Showing default

HULIANWANG DIGUI-72, 65232

Orbit data source: Space-Track

HULIANWANG DIGUI-72, 65232 is a payload satellite owned by Zhongguo Xingwang (CN) in LEO that was launched on Sun, 17 Aug 2025 UTC via a CHANG ZHENG 6A launch vehicle from the Taiyaun Space Center, China (TSC). Payload-class satellites include a variety of spacecraft equipped with specific instruments for various scientific and technological missions. These include communications satellites like Starlink; space stations such as the ISS; scientific satellites like the Hubble; Earth observation satellites from companies like Planet Labs, Umbra, and HawkEye 360; GPS; miniature CubeSats for education and research; and military/defense satellites.

Loading next visibility...
Identifier
65232, 2025-178E
Orbit
LEO
Country
Flag of CNCN / PRC
Related business
Manufacturer
CAST
Mission
Operational Civil Communications
Bus & Motor
XINGWANG C, Unknown motor
Mass
~800 kg wet, ~800 kg dry
Launch date (UTC)
2025-08-17 (10 months ago)
Launch vehicle
CHANG ZHENG 6A
Launch site
Taiyaun Space Center, China (TSC)
Object type
Payload
Rocket body
Debris
Shape & HBR
Box + 2 Pan, 2.0 m
Radar Cross Section
5.935 m², Large (>1 m²)

Expand to show TLE details & history
Last TLE update: 11 hours ago

TLE from 11 hours ago
0 HULIANWANG DIGUI-72
1 65232U 25178E   26171.42439734  .00000038  00000-0  53439-4 0  9993
2 65232  86.4980  12.4085 0001956  92.5155 267.6203 13.24410173 40740
Epoch: 2026-06-20T10:11Z
TLE epoch observation values (Epoch: 2026-06-20T10:11:07.930Z)
Latitude
-0°
Longitude
-49.01376°
Altitude
1,170.877 km
Speed
7.268 km/s
True Right ascension
00h 49m 38s
True Declination
0° 00' 00"
Sunlit
Object was in daylight at epoch
Visualization orbit readout
Latitude
Unknown
Longitude
Unknown
Altitude
Unknown
Speed
Unknown
Apparent Right ascension
Unknown
Apparent Declination
Unknown
Sunlit
N/A
Visualization observer readout
Local Sidereal Time
08:33:03
Azimuth
Unknown
Elevation
Unknown
Doppler factor
Unknown
Orbital elements
Apogee altitude
1,166.517 km
Perigee altitude
1,163.566 km
Semi-major axis
7,543.178 km
Eccentricity
0.0002
Inclination
86.498°
RAAN
12.4085°
Arg. of periapsis
92.5155°
True anomaly
267.59791°
Mean anomaly
267.6203°
Eccentric anomaly
267.6091°
Mean motion
3.31292 °/min
Orbital period
108.67 mins
BSTAR
0.000053439
Loading maneuver chart data...
Computing Atmospheric mass density...
Loading historical data...
Loading historical data...
Loading historical data...
Loading historical data...
Loading historical data...
Loading historical data...
Loading historical data...

Documentation

Showing up to 5 results
|